Station Historical Data
Daily Summary for July 5, 2017 Units:  English    Metric   Both
« Previous Day
Next Day »
Daily Weekly Monthly Yearly Custom
  High: Low: Average:
Temperature: 88.7 °F 57.3 °F 73.3 °F
Dew Point: 66.7 °F 50.5 °F 57.7 °F
Humidity: 78% 40% 60%
Wind Speed: 7.0mph 0.0mph 1.6mph
Wind Gust: 14.0mph - -
Wind- - East
Pressure: 30.18 in 30.03 in -
Precipitation: 0.00 in    
Historical Graphs
 
 
Tabular Data for July 5, 2017
Time Temperature Dew Point Pressure Wind Wind Speed Wind Gust Humidity Rainfall Rate (Hourly)
00:04 64.6 °F 51.3 °F 30.15 in Calm     62% 0.00 in
00:09 64.3 °F 51.4 °F 30.14 in Calm   2.0 mph 63% 0.00 in
00:14 64.2 °F 51.8 °F 30.15 in Calm   2.0 mph 64% 0.00 in
00:19 64.0 °F 52.0 °F 30.14 in Calm     65% 0.00 in
00:24 63.7 °F 52.1 °F 30.14 in Calm     66% 0.00 in
00:29 63.3 °F 52.2 °F 30.14 in Calm     67% 0.00 in
00:34 62.8 °F 52.1 °F 30.14 in Calm     68% 0.00 in
00:39 62.8 °F 52.1 °F 30.14 in Calm     68% 0.00 in
00:44 62.6 °F 51.9 °F 30.14 in Calm     68% 0.00 in
00:49 62.3 °F 52.0 °F 30.14 in Calm     69% 0.00 in
00:54 62.1 °F 51.8 °F 30.14 in Calm     69% 0.00 in
00:59 62.0 °F 52.1 °F 30.14 in Calm     70% 0.00 in
01:04 61.9 °F 52.0 °F 30.14 in Calm     70% 0.00 in
01:09 61.7 °F 51.8 °F 30.14 in Calm     70% 0.00 in
01:14 61.4 °F 51.9 °F 30.14 in Calm     71% 0.00 in
01:19 60.7 °F 51.6 °F 30.14 in Calm     72% 0.00 in
01:24 60.3 °F 51.6 °F 30.14 in Calm     73% 0.00 in
01:29 60.1 °F 51.8 °F 30.14 in Calm     74% 0.00 in
01:34 60.3 °F 51.6 °F 30.14 in Calm     73% 0.00 in
01:39 60.0 °F 51.7 °F 30.14 in Calm     74% 0.00 in
01:44 59.6 °F 51.7 °F 30.14 in Calm     75% 0.00 in
01:49 59.5 °F 51.6 °F 30.14 in Calm     75% 0.00 in
01:54 59.5 °F 51.6 °F 30.14 in Calm     75% 0.00 in
01:59 59.5 °F 51.6 °F 30.14 in Calm     75% 0.00 in
02:04 59.4 °F 51.5 °F 30.14 in Calm     75% 0.00 in
02:09 59.3 °F 51.4 °F 30.13 in Calm     75% 0.00 in
02:14 59.2 °F 51.6 °F 30.13 in Calm     76% 0.00 in
02:19 59.1 °F 51.5 °F 30.13 in Calm     76% 0.00 in
02:24 59.1 °F 51.5 °F 30.13 in Calm     76% 0.00 in
02:29 59.0 °F 51.4 °F 30.13 in Calm     76% 0.00 in
02:34 59.0 °F 51.4 °F 30.13 in Calm     76% 0.00 in
02:39 59.0 °F 51.4 °F 30.13 in Calm     76% 0.00 in
02:44 58.9 °F 51.3 °F 30.13 in Calm   2.0 mph 76% 0.00 in
02:49 59.0 °F 51.4 °F 30.13 in Calm   1.0 mph 76% 0.00 in
02:54 58.9 °F 51.3 °F 30.13 in Calm   1.0 mph 76% 0.00 in
02:59 58.8 °F 51.2 °F 30.12 in Calm     76% 0.00 in
03:04 58.7 °F 51.2 °F 30.12 in Calm     76% 0.00 in
03:09 58.5 °F 51.0 °F 30.13 in Calm     76% 0.00 in
03:14 58.3 °F 51.1 °F 30.12 in Calm     77% 0.00 in
03:19 58.0 °F 50.8 °F 30.12 in Calm     77% 0.00 in
03:24 57.8 °F 51.0 °F 30.13 in Calm     78% 0.00 in
03:29 57.6 °F 50.8 °F 30.13 in Calm     78% 0.00 in
03:34 57.6 °F 50.8 °F 30.13 in Calm     78% 0.00 in
03:39 57.6 °F 50.8 °F 30.13 in Calm     78% 0.00 in
03:44 57.5 °F 50.7 °F 30.13 in Calm     78% 0.00 in
03:49 57.4 °F 50.6 °F 30.13 in Calm     78% 0.00 in
03:54 57.5 °F 50.7 °F 30.13 in Calm     78% 0.00 in
03:59 57.6 °F 50.8 °F 30.14 in Calm     78% 0.00 in
04:04 57.5 °F 50.7 °F 30.14 in Calm     78% 0.00 in
04:09 57.3 °F 50.5 °F 30.14 in Calm     78% 0.00 in
04:14 57.3 °F 50.5 °F 30.14 in Calm     78% 0.00 in
04:19 57.3 °F 50.5 °F 30.14 in Calm     78% 0.00 in
04:24 57.4 °F 50.6 °F 30.14 in NE 2.0 mph 3.0 mph 78% 0.00 in
04:29 57.6 °F 50.8 °F 30.14 in NE 1.0 mph 3.0 mph 78% 0.00 in
04:34 57.8 °F 50.6 °F 30.14 in Calm     77% 0.00 in
04:39 57.8 °F 50.6 °F 30.14 in ENE 1.0 mph 2.0 mph 77% 0.00 in
04:44 57.8 °F 50.6 °F 30.13 in Calm   2.0 mph 77% 0.00 in
04:49 57.8 °F 50.6 °F 30.14 in Calm   2.0 mph 77% 0.00 in
04:54 57.8 °F 50.6 °F 30.14 in Calm   1.0 mph 77% 0.00 in
04:59 57.9 °F 50.7 °F 30.14 in Calm   2.0 mph 77% 0.00 in
05:04 58.0 °F 50.8 °F 30.14 in Calm   2.0 mph 77% 0.00 in
05:09 58.0 °F 50.8 °F 30.15 in Calm     77% 0.00 in
05:14 58.1 °F 50.9 °F 30.15 in Calm     77% 0.00 in
05:19 58.1 °F 50.9 °F 30.15 in Calm     77% 0.00 in
05:24 58.4 °F 51.2 °F 30.15 in Calm   4.0 mph 77% 0.00 in
05:29 58.9 °F 51.3 °F 30.15 in Calm     76% 0.00 in
05:34 59.2 °F 51.3 °F 30.15 in ENE 1.0 mph 2.0 mph 75% 0.00 in
05:39 59.9 °F 51.6 °F 30.15 in East 2.0 mph 3.0 mph 74% 0.00 in
05:44 60.4 °F 51.7 °F 30.15 in East 1.0 mph 3.0 mph 73% 0.00 in
05:49 60.9 °F 51.8 °F 30.15 in East 1.0 mph 3.0 mph 72% 0.00 in
05:54 61.3 °F 51.8 °F 30.15 in East 1.0 mph 2.0 mph 71% 0.00 in
05:59 61.4 °F 51.9 °F 30.16 in Calm   2.0 mph 71% 0.00 in
06:04 61.5 °F 51.6 °F 30.16 in Calm   3.0 mph 70% 0.00 in
06:09 61.2 °F 52.1 °F 30.16 in Calm   2.0 mph 72% 0.00 in
06:14 60.8 °F 51.7 °F 30.16 in Calm     72% 0.00 in
06:19 60.7 °F 52.0 °F 30.16 in Calm     73% 0.00 in
06:24 61.0 °F 51.9 °F 30.16 in Calm   2.0 mph 72% 0.00 in
06:29 61.3 °F 51.8 °F 30.16 in Calm   2.0 mph 71% 0.00 in
06:34 61.6 °F 51.7 °F 30.16 in Calm   2.0 mph 70% 0.00 in
06:39 61.9 °F 51.6 °F 30.16 in Calm   3.0 mph 69% 0.00 in
06:44 62.2 °F 51.5 °F 30.16 in Calm   3.0 mph 68% 0.00 in
06:49 62.4 °F 51.7 °F 30.16 in Calm     68% 0.00 in
06:54 62.8 °F 51.7 °F 30.17 in Calm   3.0 mph 67% 0.00 in
06:59 63.4 °F 51.8 °F 30.17 in East 1.0 mph 3.0 mph 66% 0.00 in
07:04 63.9 °F 52.7 °F 30.17 in Calm   2.0 mph 67% 0.00 in
07:09 64.0 °F 52.4 °F 30.17 in Calm     66% 0.00 in
07:14 64.1 °F 52.5 °F 30.17 in Calm   3.0 mph 66% 0.00 in
07:19 64.1 °F 52.5 °F 30.17 in East 1.0 mph 3.0 mph 66% 0.00 in
07:24 64.5 °F 52.9 °F 30.17 in East 1.0 mph 3.0 mph 66% 0.00 in
07:29 65.0 °F 52.1 °F 30.18 in ENE 2.0 mph 4.0 mph 63% 0.00 in
07:34 65.6 °F 52.7 °F 30.17 in ENE 3.0 mph 4.0 mph 63% 0.00 in
07:39 65.8 °F 52.4 °F 30.17 in ENE 2.0 mph 5.0 mph 62% 0.00 in
07:44 66.2 °F 52.8 °F 30.18 in ENE 1.0 mph 4.0 mph 62% 0.00 in
07:49 66.5 °F 52.6 °F 30.18 in ENE 2.0 mph 4.0 mph 61% 0.00 in
07:54 66.9 °F 53.0 °F 30.18 in ENE 1.0 mph 5.0 mph 61% 0.00 in
07:59 67.3 °F 52.5 °F 30.18 in Calm   6.0 mph 59% 0.00 in
08:04 67.9 °F 53.0 °F 30.18 in ENE 1.0 mph 7.0 mph 59% 0.00 in
08:09 68.2 °F 53.3 °F 30.18 in ENE 4.0 mph 6.0 mph 59% 0.00 in
08:14 68.5 °F 53.6 °F 30.18 in ENE 2.0 mph 5.0 mph 59% 0.00 in
08:19 68.9 °F 53.5 °F 30.18 in East 3.0 mph 6.0 mph 58% 0.00 in
08:24 69.6 °F 54.2 °F 30.17 in ENE 2.0 mph 6.0 mph 58% 0.00 in
08:29 70.2 °F 53.8 °F 30.17 in NE 6.0 mph 7.0 mph 56% 0.00 in
08:34 70.3 °F 54.3 °F 30.17 in ENE 1.0 mph 6.0 mph 57% 0.00 in
08:39 70.5 °F 54.0 °F 30.18 in ENE 5.0 mph 6.0 mph 56% 0.00 in
08:44 71.6 °F 56.0 °F 30.18 in NE 4.0 mph 5.0 mph 58% 0.00 in
08:49 72.1 °F 55.5 °F 30.17 in NE 2.0 mph 6.0 mph 56% 0.00 in
08:54 72.3 °F 54.7 °F 30.17 in ENE 2.0 mph 6.0 mph 54% 0.00 in
08:59 72.4 °F 55.8 °F 30.17 in East 3.0 mph 7.0 mph 56% 0.00 in
09:04 72.8 °F 55.2 °F 30.17 in SE 4.0 mph 9.0 mph 54% 0.00 in
09:09 72.9 °F 56.3 °F 30.17 in SE 2.0 mph 7.0 mph 56% 0.00 in
09:14 73.6 °F 56.4 °F 30.17 in SSE 4.0 mph 6.0 mph 55% 0.00 in
09:19 73.7 °F 56.5 °F 30.17 in ESE 3.0 mph 6.0 mph 55% 0.00 in
09:24 74.3 °F 56.6 °F 30.17 in ESE 1.0 mph 8.0 mph 54% 0.00 in
09:29 75.0 °F 56.7 °F 30.17 in SSE 2.0 mph 7.0 mph 53% 0.00 in
09:34 75.8 °F 57.4 °F 30.17 in East 1.0 mph 5.0 mph 53% 0.00 in
09:39 76.0 °F 57.6 °F 30.16 in SE 5.0 mph 7.0 mph 53% 0.00 in
09:44 75.9 °F 58.1 °F 30.16 in ESE 2.0 mph 7.0 mph 54% 0.00 in
09:49 76.5 °F 58.6 °F 30.16 in ESE 3.0 mph 8.0 mph 54% 0.00 in
09:54 76.8 °F 58.4 °F 30.16 in ESE 3.0 mph 8.0 mph 53% 0.00 in
09:59 77.2 °F 59.3 °F 30.16 in ESE 3.0 mph 8.0 mph 54% 0.00 in
10:04 77.4 °F 58.4 °F 30.16 in SE 3.0 mph 7.0 mph 52% 0.00 in
10:09 78.3 °F 58.1 °F 30.16 in SE 1.0 mph 5.0 mph 50% 0.00 in
10:14 78.3 °F 58.1 °F 30.16 in East 3.0 mph 7.0 mph 50% 0.00 in
10:19 78.8 °F 59.1 °F 30.15 in ENE 3.0 mph 8.0 mph 51% 0.00 in
10:24 79.4 °F 59.7 °F 30.15 in SSE 2.0 mph 6.0 mph 51% 0.00 in
10:29 79.7 °F 58.8 °F 30.15 in NE 4.0 mph 8.0 mph 49% 0.00 in
10:34 80.0 °F 59.1 °F 30.15 in East 3.0 mph 8.0 mph 49% 0.00 in
10:39 80.0 °F 59.1 °F 30.15 in NE 5.0 mph 7.0 mph 49% 0.00 in
10:44 80.3 °F 60.0 °F 30.15 in East 4.0 mph 10.0 mph 50% 0.00 in
10:49 80.6 °F 57.9 °F 30.15 in ENE 5.0 mph 10.0 mph 46% 0.00 in
10:54 80.5 °F 58.4 °F 30.14 in ENE 5.0 mph 11.0 mph 47% 0.00 in
10:59 80.7 °F 57.4 °F 30.14 in ENE 5.0 mph 11.0 mph 45% 0.00 in
11:04 81.4 °F 60.4 °F 30.14 in ENE 2.0 mph 6.0 mph 49% 0.00 in
11:09 81.4 °F 59.8 °F 30.14 in SSE 2.0 mph 9.0 mph 48% 0.00 in
11:14 81.6 °F 59.4 °F 30.14 in ESE 1.0 mph 8.0 mph 47% 0.00 in
11:19 81.4 °F 58.6 °F 30.14 in SE 3.0 mph 8.0 mph 46% 0.00 in
11:24 81.9 °F 59.7 °F 30.14 in SSE 2.0 mph 7.0 mph 47% 0.00 in
11:29 82.2 °F 58.7 °F 30.14 in SE 2.0 mph 10.0 mph 45% 0.00 in
11:34 82.1 °F 60.5 °F 30.14 in NNE 4.0 mph 10.0 mph 48% 0.00 in
11:39 82.0 °F 57.9 °F 30.14 in SE 2.0 mph 9.0 mph 44% 0.00 in
11:44 82.9 °F 58.1 °F 30.14 in ESE 3.0 mph 9.0 mph 43% 0.00 in
11:49 82.0 °F 58.6 °F 30.14 in SE 3.0 mph 9.0 mph 45% 0.00 in
11:54 81.4 °F 59.2 °F 30.14 in East 7.0 mph 11.0 mph 47% 0.00 in
11:59 82.9 °F 60.6 °F 30.13 in SSE 4.0 mph 6.0 mph 47% 0.00 in
12:04 82.5 °F 58.4 °F 30.13 in East 3.0 mph 8.0 mph 44% 0.00 in
12:09 82.7 °F 61.0 °F 30.13 in SSE 3.0 mph 8.0 mph 48% 0.00 in
12:14 82.9 °F 59.4 °F 30.12 in SE 3.0 mph 8.0 mph 45% 0.00 in
12:19 83.3 °F 60.4 °F 30.12 in SE 3.0 mph 8.0 mph 46% 0.00 in
12:24 82.7 °F 60.4 °F 30.12 in SE 3.0 mph 8.0 mph 47% 0.00 in
12:29 83.1 °F 58.3 °F 30.12 in SE 3.0 mph 8.0 mph 43% 0.00 in
12:34 83.3 °F 61.6 °F 30.12 in SE 2.0 mph 9.0 mph 48% 0.00 in
12:39 83.8 °F 60.8 °F 30.12 in SSE 1.0 mph 7.0 mph 46% 0.00 in
12:44 83.7 °F 61.3 °F 30.11 in SW 3.0 mph 7.0 mph 47% 0.00 in
12:49 84.0 °F 60.4 °F 30.11 in ESE 4.0 mph 9.0 mph 45% 0.00 in
12:54 84.1 °F 61.1 °F 30.11 in ESE 3.0 mph 7.0 mph 46% 0.00 in
12:59 83.5 °F 59.9 °F 30.11 in North 2.0 mph 10.0 mph 45% 0.00 in
13:04 83.8 °F 60.8 °F 30.11 in NE 5.0 mph 6.0 mph 46% 0.00 in
13:09 84.7 °F 60.4 °F 30.11 in East 3.0 mph 7.0 mph 44% 0.00 in
13:14 84.8 °F 61.7 °F 30.10 in SE 4.0 mph 8.0 mph 46% 0.00 in
13:19 83.8 °F 58.3 °F 30.10 in SE 3.0 mph 8.0 mph 42% 0.00 in
13:24 83.9 °F 60.9 °F 30.10 in ESE 3.0 mph 7.0 mph 46% 0.00 in
13:29 83.5 °F 62.3 °F 30.10 in Calm   4.0 mph 49% 0.00 in
13:34 84.7 °F 61.6 °F 30.09 in NE 3.0 mph 8.0 mph 46% 0.00 in
13:39 85.1 °F 62.0 °F 30.09 in ENE 5.0 mph 9.0 mph 46% 0.00 in
13:44 85.2 °F 61.5 °F 30.09 in WSW 3.0 mph 7.0 mph 45% 0.00 in
13:49 84.0 °F 61.0 °F 30.09 in SSE 1.0 mph 3.0 mph 46% 0.00 in
13:54 84.9 °F 61.8 °F 30.09 in ESE 2.0 mph 9.0 mph 46% 0.00 in
13:59 84.5 °F 60.8 °F 30.09 in Calm   9.0 mph 45% 0.00 in
14:04 84.1 °F 60.5 °F 30.09 in East 2.0 mph 6.0 mph 45% 0.00 in
14:09 83.2 °F 61.5 °F 30.08 in NE 3.0 mph 8.0 mph 48% 0.00 in
14:14 84.9 °F 63.6 °F 30.08 in ENE 3.0 mph 8.0 mph 49% 0.00 in
14:19 84.4 °F 60.1 °F 30.08 in SE 2.0 mph 6.0 mph 44% 0.00 in
14:24 83.7 °F 60.7 °F 30.08 in SE 3.0 mph 8.0 mph 46% 0.00 in
14:29 83.8 °F 61.4 °F 30.08 in SE 3.0 mph 6.0 mph 47% 0.00 in
14:34 84.0 °F 62.2 °F 30.08 in SSE 1.0 mph 6.0 mph 48% 0.00 in
14:39 85.3 °F 62.2 °F 30.08 in SSE 2.0 mph 6.0 mph 46% 0.00 in
14:44 85.9 °F 63.3 °F 30.08 in Calm   3.0 mph 47% 0.00 in
14:49 86.8 °F 63.5 °F 30.07 in South 3.0 mph 6.0 mph 46% 0.00 in
14:54 87.1 °F 61.9 °F 30.07 in SW 3.0 mph 6.0 mph 43% 0.00 in
14:59 87.2 °F 62.6 °F 30.07 in ESE 1.0 mph 9.0 mph 44% 0.00 in
15:04 87.1 °F 62.5 °F 30.07 in Calm   6.0 mph 44% 0.00 in
15:09 86.5 °F 61.3 °F 30.07 in South 3.0 mph 7.0 mph 43% 0.00 in
15:14 85.2 °F 61.5 °F 30.07 in West 2.0 mph 7.0 mph 45% 0.00 in
15:19 84.8 °F 62.3 °F 30.07 in ENE 5.0 mph 9.0 mph 47% 0.00 in
15:24 86.2 °F 63.0 °F 30.07 in South 7.0 mph 8.0 mph 46% 0.00 in
15:29 85.9 °F 63.3 °F 30.06 in SE 5.0 mph 6.0 mph 47% 0.00 in
15:34 86.4 °F 60.6 °F 30.06 in SW 1.0 mph 7.0 mph 42% 0.00 in
15:39 85.9 °F 62.1 °F 30.07 in ESE 2.0 mph 7.0 mph 45% 0.00 in
15:44 87.3 °F 62.7 °F 30.06 in SE 2.0 mph 6.0 mph 44% 0.00 in
15:49 87.9 °F 64.5 °F 30.06 in SE 3.0 mph 6.0 mph 46% 0.00 in
15:54 87.4 °F 64.1 °F 30.06 in SE 2.0 mph 6.0 mph 46% 0.00 in
15:59 87.1 °F 63.2 °F 30.05 in SE 2.0 mph 4.0 mph 45% 0.00 in
16:04 86.8 °F 61.6 °F 30.05 in Calm   5.0 mph 43% 0.00 in
16:09 85.7 °F 61.9 °F 30.05 in SW 4.0 mph 4.0 mph 45% 0.00 in
16:14 86.4 °F 61.9 °F 30.05 in WNW 1.0 mph 5.0 mph 44% 0.00 in
16:19 88.1 °F 63.4 °F 30.05 in Calm   3.0 mph 44% 0.00 in
16:24 88.6 °F 63.2 °F 30.05 in East 5.0 mph 5.0 mph 43% 0.00 in
16:29 88.7 °F 62.0 °F 30.05 in South 2.0 mph 5.0 mph 41% 0.00 in
16:34 88.7 °F 62.7 °F 30.04 in ESE 3.0 mph 5.0 mph 42% 0.00 in
16:39 88.0 °F 60.7 °F 30.04 in South 2.0 mph 5.0 mph 40% 0.00 in
16:44 86.7 °F 61.5 °F 30.04 in SSW 2.0 mph 5.0 mph 43% 0.00 in
16:49 86.0 °F 60.2 °F 30.04 in South 2.0 mph 4.0 mph 42% 0.00 in
16:54 85.4 °F 61.6 °F 30.04 in SSE 1.0 mph 4.0 mph 45% 0.00 in
16:59 85.9 °F 62.7 °F 30.04 in SE 1.0 mph 3.0 mph 46% 0.00 in
17:04 87.6 °F 64.3 °F 30.04 in ENE 1.0 mph 3.0 mph 46% 0.00 in
17:09 87.4 °F 64.7 °F 30.04 in ENE 2.0 mph 5.0 mph 47% 0.00 in
17:14 87.6 °F 64.3 °F 30.03 in NE 5.0 mph 6.0 mph 46% 0.00 in
17:19 86.8 °F 63.5 °F 30.03 in NNE 1.0 mph 5.0 mph 46% 0.00 in
17:24 87.1 °F 63.8 °F 30.03 in NE 3.0 mph 7.0 mph 46% 0.00 in
17:29 86.6 °F 63.4 °F 30.03 in NNW 6.0 mph 7.0 mph 46% 0.00 in
17:34 85.3 °F 62.2 °F 30.03 in Calm   6.0 mph 46% 0.00 in
17:39 85.0 °F 63.1 °F 30.03 in North 2.0 mph 6.0 mph 48% 0.00 in
17:44 85.3 °F 62.8 °F 30.03 in NE 2.0 mph 8.0 mph 47% 0.00 in
17:49 85.2 °F 65.6 °F 30.03 in NNE 3.0 mph 8.0 mph 52% 0.00 in
17:54 84.1 °F 66.7 °F 30.03 in North 2.0 mph 6.0 mph 56% 0.00 in
17:59 84.8 °F 66.3 °F 30.03 in NNE 5.0 mph 5.0 mph 54% 0.00 in
18:04 84.3 °F 66.4 °F 30.03 in NNE 3.0 mph 8.0 mph 55% 0.00 in
18:09 83.6 °F 65.7 °F 30.03 in NNE 3.0 mph 8.0 mph 55% 0.00 in
18:14 83.8 °F 65.9 °F 30.03 in NNE 3.0 mph 7.0 mph 55% 0.00 in
18:19 83.7 °F 66.3 °F 30.03 in NNE 3.0 mph 8.0 mph 56% 0.00 in
18:24 83.1 °F 64.7 °F 30.04 in ENE 3.0 mph 10.0 mph 54% 0.00 in
18:29 82.4 °F 65.1 °F 30.03 in NNE 3.0 mph 12.0 mph 56% 0.00 in
18:34 81.8 °F 64.6 °F 30.03 in NNE 4.0 mph 12.0 mph 56% 0.00 in
18:39 81.6 °F 64.9 °F 30.03 in North 3.0 mph 8.0 mph 57% 0.00 in
18:44 81.6 °F 64.9 °F 30.04 in NNE 3.0 mph 13.0 mph 57% 0.00 in
18:49 81.2 °F 64.5 °F 30.04 in North 3.0 mph 8.0 mph 57% 0.00 in
18:54 81.0 °F 64.3 °F 30.04 in North 3.0 mph 5.0 mph 57% 0.00 in
18:59 80.9 °F 64.7 °F 30.04 in NE 3.0 mph 6.0 mph 58% 0.00 in
19:04 80.9 °F 63.7 °F 30.04 in NE 1.0 mph 8.0 mph 56% 0.00 in
19:09 80.6 °F 63.5 °F 30.04 in NE 3.0 mph 8.0 mph 56% 0.00 in
19:14 80.2 °F 63.1 °F 30.03 in NE 4.0 mph 14.0 mph 56% 0.00 in
19:19 79.9 °F 62.8 °F 30.03 in NE 4.0 mph 11.0 mph 56% 0.00 in
19:24 79.8 °F 62.7 °F 30.04 in NE 2.0 mph 10.0 mph 56% 0.00 in
19:29 79.7 °F 63.6 °F 30.04 in NE 3.0 mph 5.0 mph 58% 0.00 in
19:34 79.5 °F 62.9 °F 30.03 in NE 2.0 mph 8.0 mph 57% 0.00 in
19:39 79.3 °F 63.7 °F 30.03 in NE 3.0 mph 8.0 mph 59% 0.00 in
19:44 79.2 °F 63.1 °F 30.03 in NE 2.0 mph 8.0 mph 58% 0.00 in
19:49 78.9 °F 62.9 °F 30.04 in NE 2.0 mph 8.0 mph 58% 0.00 in
19:54 78.5 °F 63.0 °F 30.04 in NNE 2.0 mph 6.0 mph 59% 0.00 in
19:59 78.3 °F 62.8 °F 30.04 in NNE 3.0 mph 5.0 mph 59% 0.00 in
20:04 77.9 °F 62.9 °F 30.04 in NNE 2.0 mph 5.0 mph 60% 0.00 in
20:09 77.7 °F 62.7 °F 30.04 in NE 4.0 mph 7.0 mph 60% 0.00 in
20:14 77.3 °F 62.3 °F 30.03 in NNE 1.0 mph 4.0 mph 60% 0.00 in
20:19 77.2 °F 62.7 °F 30.03 in NNE 2.0 mph 4.0 mph 61% 0.00 in
20:24 77.0 °F 63.0 °F 30.03 in NE 2.0 mph 5.0 mph 62% 0.00 in
20:29 76.7 °F 62.7 °F 30.03 in NE 2.0 mph 3.0 mph 62% 0.00 in
20:34 76.4 °F 62.4 °F 30.03 in NNE 2.0 mph 6.0 mph 62% 0.00 in
20:39 76.3 °F 62.3 °F 30.03 in NE 2.0 mph 8.0 mph 62% 0.00 in
20:44 76.0 °F 62.0 °F 30.03 in NE 2.0 mph 8.0 mph 62% 0.00 in
20:49 75.6 °F 61.7 °F 30.03 in NE 2.0 mph 5.0 mph 62% 0.00 in
20:54 75.4 °F 61.0 °F 30.04 in NE 2.0 mph 5.0 mph 61% 0.00 in
20:59 75.1 °F 61.2 °F 30.04 in NE 2.0 mph 5.0 mph 62% 0.00 in
21:04 74.9 °F 61.0 °F 30.04 in Calm   2.0 mph 62% 0.00 in
21:09 74.8 °F 60.9 °F 30.04 in ENE 1.0 mph 6.0 mph 62% 0.00 in
21:14 74.7 °F 60.8 °F 30.04 in Calm   2.0 mph 62% 0.00 in
21:19 74.5 °F 60.6 °F 30.04 in NE 2.0 mph 8.0 mph 62% 0.00 in
21:24 74.4 °F 60.5 °F 30.04 in Calm   3.0 mph 62% 0.00 in
21:29 74.0 °F 60.6 °F 30.04 in ENE 1.0 mph 2.0 mph 63% 0.00 in
21:34 73.8 °F 60.4 °F 30.04 in Calm   2.0 mph 63% 0.00 in
21:39 73.6 °F 60.7 °F 30.04 in Calm   2.0 mph 64% 0.00 in
21:44 73.3 °F 60.8 °F 30.04 in Calm     65% 0.00 in
21:49 72.9 °F 60.9 °F 30.04 in Calm     66% 0.00 in
21:54 72.8 °F 60.3 °F 30.04 in Calm     65% 0.00 in
21:59 72.8 °F 60.3 °F 30.04 in Calm     65% 0.00 in
22:04 72.9 °F 60.4 °F 30.04 in Calm     65% 0.00 in
22:09 72.8 °F 60.3 °F 30.04 in Calm     65% 0.00 in
22:14 72.6 °F 60.2 °F 30.05 in Calm   4.0 mph 65% 0.00 in
22:19 72.4 °F 60.4 °F 30.05 in Calm   3.0 mph 66% 0.00 in
22:24 72.1 °F 60.1 °F 30.05 in Calm     66% 0.00 in
22:29 72.2 °F 60.6 °F 30.05 in Calm     67% 0.00 in
22:34 72.5 °F 60.5 °F 30.04 in Calm   2.0 mph 66% 0.00 in
22:39 72.8 °F 60.3 °F 30.04 in Calm   2.0 mph 65% 0.00 in
22:44 72.9 °F 60.9 °F 30.05 in Calm   2.0 mph 66% 0.00 in
22:49 72.7 °F 60.7 °F 30.05 in Calm     66% 0.00 in
22:54 72.6 °F 60.6 °F 30.04 in Calm     66% 0.00 in
22:59 72.4 °F 60.4 °F 30.04 in Calm     66% 0.00 in
23:04 72.2 °F 60.2 °F 30.04 in Calm     66% 0.00 in
23:09 72.2 °F 60.2 °F 30.04 in Calm     66% 0.00 in
23:14 71.9 °F 60.3 °F 30.04 in Calm     67% 0.00 in
23:19 71.6 °F 60.1 °F 30.04 in Calm     67% 0.00 in
23:24 71.3 °F 60.2 °F 30.04 in Calm     68% 0.00 in
23:29 70.8 °F 60.1 °F 30.04 in Calm     69% 0.00 in
23:34 70.4 °F 60.1 °F 30.04 in Calm     70% 0.00 in
23:39 70.4 °F 60.1 °F 30.04 in Calm     70% 0.00 in
23:44 70.2 °F 60.0 °F 30.04 in Calm     70% 0.00 in
23:49 69.8 °F 60.0 °F 30.04 in Calm     71% 0.00 in
23:54 69.7 °F 60.3 °F 30.05 in Calm     72% 0.00 in
23:59 69.7 °F 60.3 °F 30.04 in Calm     72% 0.00 in
Buffalo, New York, USA
Compliments of Weather Underground - 2.5 mb